Location: Unspecified
(0.0000°N, 0.0000°E)
Time: 06:34:39
(UTC+00:00)

Explorer 11/Cluster Stage 4 - Pass Details

Date: 22 November 2019
Orbit: 467 x 1259 km, 28.8° (Epoch: 11 December)

Event Time Altitude Azimuth Distance (km) Brightness Sun altitude
Rises 13:49:07 0° 233° (SW) 2,577 9.8 53.8°
Reaches altitude 10° 13:51:24 10° 229° (SW) 1,644 9.1 53.3°
Maximum altitude 13:55:01 56° 149° (SSE) 552 6.6 52.6°
Drops below altitude 10° 13:58:34 10° 70° (ENE) 1,623 8.0 51.8°
Sets 14:00:49 0° 66° (ENE) 2,540 8.8 51.4°
